Location: Kosice
(0.0000°N, 21.2500°E)
Time: 06:07:16
(UTC+01:00)

Lacrosse 5 - Pass Details

Date: 24 January 2021
Orbit: 715 x 724 km, 57.0° (Epoch: 03 March)

Event Time Altitude Azimuth Distance (km) Brightness Sun altitude
Rises 18:41:26 0° 2° (N) 3,100 4.9 -12.8°
Reaches altitude 10° 18:44:49 10° 25° (NNE) 2,186 4.0 -13.6°
Enters shadow 18:45:06 11° 28° (NNE) 2,133 3.9 -13.7°
